Location: Jangalapalle
(16.8036°N, 80.6370°E)
Time: 10:35:33
(UTC+00:00)

Intelsat 5-2 Rocket - Pass Details

Date: 05 August 2024
Orbit: 343 x 9823 km, 23.7° (Epoch: 13 September)

Event Time Altitude Azimuth Distance (km) Brightness Sun altitude
Rises 14:38:17 0° 287° (WNW) 5,561 9.4 -20.9°
Reaches altitude 10° 14:43:29 10° 286° (WNW) 3,359 7.9 -22.0°
Maximum altitude 14:50:14 71° 203° (SSW) 628 2.9 -23.5°
Enters shadow 14:50:16 71° 197° (SSW) 625 2.9 -23.5°
